Grey Islet, British Columbia

7:02 AM PDT on April 21, 2018 (GMT -0700)
Grey Islet

Weather History for CWEK - October, 2012

Change the Weather History Date:

Thursday, October 11, 2012

  Actual Average Record
Temperature  
Mean Temperature 48 °F -  
Max Temperature 49 °F - - ()
Min Temperature 46 °F - - ()
Degree Days  
Heating Degree Days 18    
Moisture  
Dew Point 47 °F    
Average Humidity 100    
Maximum Humidity 100    
Minimum Humidity 98    
Precipitation  
Precipitation 0.43 in - - ()
Sea Level Pressure  
Sea Level Pressure 29.75 in    
Wind  
Wind Speed 10 mph ()    
Max Wind Speed 28 mph    
Max Gust Speed 33 mph    
T = Trace of Precipitation, MM = Missing Value Source: Averaged Metar Reports

Daily Weather History Graph

Daily Weather History Graph

Search for Another Location

Airport or City:

Astronomy

Oct. 11, 2012 Rise Set
Actual Time 8:05 AM PDT 6:52 PM PDT
Civil Twilight 7:29 AM PDT 7:28 PM PDT
Nautical Twilight 6:47 AM PDT 8:09 PM PDT
Astronomical Twilight 6:05 AM PDT 8:51 PM PDT
Moon 3:15 AM PDT (10/11) 5:02 PM PDT (10/11)
Length of Visible Light 11h 59m
Length of Day
10h 47m
Waning Crescent, 17% of the Moon is Illuminated
Oct 11
Waning Crescent
Oct 15
New
Oct 21
First Quarter
Oct 29
Full
Nov 6
Last Quarter

Hourly Weather History & Observations

Time (PDT) Temp. Dew Point Humidity Pressure Visibility Wind Dir Wind Speed Gust Speed Precip Events Conditions
1:00 AM 48.7 °F - N/A% 29.94 in - WSW 3.5 mph - N/A   Unknown
2:00 AM 48.6 °F - N/A% 29.93 in - NW 1.2 mph - N/A   Unknown
3:00 AM 48.4 °F - N/A% 29.91 in - NE 4.6 mph - N/A   Unknown
4:00 AM 48.2 °F - N/A% 29.88 in - ENE 10.4 mph - N/A   Unknown
5:00 AM 48 °F - % 29.87 in - ENE 12.7 mph - -  
5:00 AM 47.7 °F - N/A% 29.87 in - ENE 12.7 mph - N/A   Unknown
7:00 AM 48.0 °F - N/A% 29.84 in - SE 4.6 mph - N/A   Unknown
8:00 AM 47.8 °F - N/A% 29.83 in - ESE 2.3 mph - N/A   Unknown
9:00 AM 47.8 °F - N/A% 29.83 in - ESE 5.8 mph - N/A   Unknown
10:00 AM 48.0 °F - N/A% 29.82 in - East 6.9 mph - N/A   Unknown
11:00 AM 49 °F - % 29.81 in - East 8.1 mph - -  
11:00 AM 48.9 °F - N/A% 29.81 in - East 8.1 mph - N/A   Unknown
12:00 PM 48.6 °F 48.6 °F 100% 29.80 in - ENE 13.8 mph - N/A   Unknown
1:00 PM 48.0 °F 48.0 °F 100% 29.78 in - ENE 18.4 mph - 0.01 in   Unknown
2:00 PM 48.0 °F 48.0 °F 100% 29.74 in - ENE 20.7 mph - N/A   Unknown
3:00 PM 48.6 °F 48.6 °F 100% 29.72 in - ENE 21.9 mph - N/A   Unknown
5:00 PM 48 °F 48 °F 99% 29.67 in - ENE 20.7 mph - -  
5:00 PM 47.8 °F 47.8 °F 100% 29.67 in - ENE 20.7 mph - N/A   Unknown
6:00 PM 47.3 °F 47.3 °F 100% 29.64 in - ENE 23.0 mph - 0.02 in   Unknown
7:00 PM 46.6 °F 46.6 °F 100% 29.61 in - ENE 23.0 mph - 0.09 in   Unknown
8:00 PM 46.6 °F 46.6 °F 100% 29.58 in - ENE 25.3 mph - 0.11 in   Unknown
9:00 PM 46.6 °F 46.6 °F 100% 29.56 in - ENE 24.2 mph - 0.09 in   Unknown
11:00 PM 47 °F 47 °F 98% 29.50 in - ENE 27.6 mph - -  
11:00 PM 46.6 °F 46.6 °F 100% 29.50 in - ENE 27.6 mph 33.4 mph 0.08 in   Unknown